TimeCST,TemperatureF,Dew PointF,Humidity,Sea Level PressureIn,VisibilityMPH,Wind Direction,Wind SpeedMPH,Gust SpeedMPH,PrecipitationIn,Events,Conditions,WindDirDegrees,DateUTC
12:52 AM,37.9,28.9,70,30.17,10.0,SSE,6.9,-,N/A,,Clear,160,2013-03-03 06:52:00
1:52 AM,37.9,28.9,70,30.17,10.0,SSE,6.9,-,N/A,,Clear,160,2013-03-03 07:52:00
2:52 AM,39.0,28.0,65,30.13,10.0,SSE,8.1,-,N/A,,Clear,160,2013-03-03 08:52:00
3:52 AM,39.0,28.0,65,30.10,10.0,South,9.2,-,N/A,,Clear,170,2013-03-03 09:52:00
4:52 AM,37.4,28.4,70,30.08,10.0,South,10.4,-,N/A,,Clear,170,2013-03-03 10:52:00
5:52 AM,37.4,28.4,70,30.07,10.0,South,9.2,-,N/A,,Clear,180,2013-03-03 11:52:00
6:52 AM,34.0,27.0,75,30.07,10.0,South,9.2,-,N/A,,Clear,180,2013-03-03 12:52:00
7:52 AM,39.9,30.0,68,30.07,10.0,South,12.7,-,N/A,,Clear,190,2013-03-03 13:52:00
8:52 AM,46.4,30.2,53,30.06,10.0,South,11.5,-,N/A,,Clear,180,2013-03-03 14:52:00
9:52 AM,51.1,30.9,46,30.04,10.0,South,10.4,-,N/A,,Clear,190,2013-03-03 15:52:00
10:52 AM,61.0,32.0,34,29.99,10.0,SSW,11.5,-,N/A,,Partly Cloudy,200,2013-03-03 16:52:00
11:52 AM,69.1,30.9,24,29.95,10.0,South,13.8,-,N/A,,Scattered Clouds,190,2013-03-03 17:52:00
12:52 PM,75.0,30.0,19,29.88,10.0,SSW,17.3,27.6,N/A,,Mostly Cloudy,200,2013-03-03 18:52:00
1:52 PM,78.1,24.1,14,29.81,10.0,South,26.5,34.5,N/A,,Clear,190,2013-03-03 19:52:00
2:52 PM,79.0,24.1,13,29.77,10.0,South,24.2,34.5,N/A,,Mostly Cloudy,190,2013-03-03 20:52:00
3:52 PM,79.0,23.0,13,29.74,10.0,SSW,25.3,32.2,N/A,,Mostly Cloudy,200,2013-03-03 21:52:00
4:52 PM,78.1,24.1,14,29.70,10.0,South,20.7,29.9,N/A,,Mostly Cloudy,180,2013-03-03 22:52:00
5:52 PM,75.9,24.1,15,29.69,10.0,South,16.1,-,N/A,,Clear,190,2013-03-03 23:52:00
6:52 PM,70.0,24.1,18,29.68,10.0,South,13.8,-,N/A,,Clear,170,2013-03-04 00:52:00
7:52 PM,66.0,26.1,22,29.66,10.0,South,16.1,-,N/A,,Clear,170,2013-03-04 01:52:00
8:52 PM,64.0,27.0,25,29.65,10.0,South,16.1,-,N/A,,Clear,170,2013-03-04 02:52:00
9:52 PM,63.0,26.1,25,29.65,10.0,South,15.0,-,N/A,,Clear,190,2013-03-04 03:52:00
10:52 PM,64.4,24.8,22,29.64,10.0,South,15.0,-,N/A,,Clear,190,2013-03-04 04:52:00
11:52 PM,64.9,24.1,21,29.60,10.0,SSW,16.1,-,N/A,,Clear,200,2013-03-04 05:52:00